Wind_Speed
15 22 33 34 32 31 36 35 37 31 43 41 36 30 36 36 26 25 33 27 27 34 30 34 42 48 54 48 42 42 36 37 33 32 31 30 28 27 27 27 27 28 26 26
17 21 29 34 34 36 34 36 44 38 39 42 44 42 35 40 36 32 26 30 29 28 29 30 36 40 45 42 53 43 43 41 40 37 36 34 32 30 30 29 29 29 30 29
17 23 30 31 33 36 39 42 43 41 33 41 46 44 38 32 34 28 22 20 26 34 36 27 28 35 42 48 48 39 34 37 43 38 38 38 37 35 34 33 33 33 34 32
15 21 24 22 27 30 31 28 33 38 38 39 42 52 53 52 42 33 27 31 32 36 40 37 18 32 40 48 47 47 42 50 50 42 40 40 39 38 36 36 36 35 36 35
20 22 19 22 27 30 26 26 33 33 33 36 39 42 46 40 38 38 47 36 35 43 31 20 36 34 42 39 49 54 30 26 25 41 36 40 37 37 37 37 37 36 34 36
21 20 19 19 28 25 24 24 22 27 33 33 38 34 31 29 26 17 29 45 50 37 39 49 27 18 39 44 48 55 51 34 34 30 34 47 37 36 38 34 42 39 38 38
21 20 21 22 28 22 22 21 27 32 34 36 32 30 38 35 36 32 22 27 36 36 33 28 16 18 24 29 35 46 47 40 37 45 39 45 35 37 34 38 35 37 40 40
21 25 23 20 21 21 18 17 21 24 29 29 30 24 31 32 42 32 26 20 26 27 26 31 16 7 15 28 30 32 27 31 45 35 41 43 44 46 50 44 48 46 49 40
25 22 16 18 21 22 21 23 26 28 23 27 27 38 34 12 19 20 20 14 17 17 30 41 38 32 4 17 31 35 40 38 33 36 44 45 49 49 47 47 44 52 44 37
21 16 18 17 19 31 24 25 27 26 23 23 15 24 23 27 15 18 19 12 9 14 15 19 39 41 30 8 13 27 14 13 16 30 28 31 28 25 29 30 31 38 36 40
20 20 13 18 28 31 25 18 21 16 12 9 10 11 11 16 17 18 17 11 10 13 13 10 12 23 29 9 9 9 12 12 9 12 11 8 13 6 4 6 5 9 12 14
16 17 13 14 24 18 14 18 10 9 13 9 1 7 12 16 17 14 12 12 15 16 19 17 17 19 12 20 9 7 1 3 4 2 5 5 7 6 9 9 10 10 13 16
19 10 10 11 17 18 17 9 1 8 7 5 3 5 11 17 20 19 14 11 3 13 13 12 11 12 5 5 5 8 9 8 7 4 5 5 6 6 7 9 9 11 14 15
8 10 11 10 14 10 12 11 4 5 2 4 8 9 12 16 19 19 17 12 10 11 12 12 9 8 8 7 10 9 9 4 3 5 6 8 10 10 12 13 15 16 15 16
22 16 12 8 11 10 10 7 4 3 2 1 5 9 12 14 16 18 19 17 17 14 21 16 15 15 16 15 14 11 10 7 7 8 9 9 11 10 10 9 7 6 7 9
14 15 10 9 10 11 4 6 4 2 2 2 3 6 7 10 15 20 18 20 22 23 24 23 18 15 17 18 16 11 10 10 8 7 7 7 5 4 3 4 6 7 9 13
14 17 14 11 11 6 5 6 7 4 3 2 3 4 3 8 8 9 10 13 17 20 20 16 14 14 15 14 12 9 8 9 8 6 5 4 4 5 7 8 10 13 16 18
24 22 19 17 12 9 9 7 6 4 6 5 4 2 4 7 7 6 6 6 7 10 11 10 10 10 9 9 10 8 7 7 6 6 6 6 8 10 12 14 14 15 17 21
26 24 22 21 17 15 12 11 8 6 6 8 8 8 8 9 7 8 7 7 9 10 10 11 11 9 9 9 9 8 7 6 6 6 8 9 11 12 13 14 17 21 23 25
24 26 27 25 23 19 18 15 11 9 8 7 7 9 10 8 8 8 8 7 8 10 9 9 9 9 9 8 7 7 6 5 5 5 6 8 10 13 17 20 22 24 25 28
23 26 28 29 27 27 24 22 17 14 11 9 8 8 8 6 7 6 6 5 5 5 5 9 10 11 12 12 10 9 9 7 4 3 6 9 12 15 18 21 24 26 28 31
22 23 26 29 31 31 31 28 24 20 17 14 11 8 7 9 9 8 8 7 7 7 9 11 11 10 10 11 12 11 7 5 7 9 11 15 18 20 23 24 26 28 31 35
29 29 29 32 34 34 34 32 27 27 24 20 17 13 9 10 14 13 12 10 11 12 11 10 9 10 11 12 12 9 9 11 13 16 18 20 24 27 30 31 32 32 34 36
32 33 32 32 37 36 37 35 31 30 28 25 25 21 16 14 14 16 18 16 15 17 18 16 14 13 14 15 15 15 15 16 17 19 23 25 28 32 34 35 35 35 37 39
25 25 25 28 36 41 36 34 32 33 34 30 27 26 23 21 19 17 19 21 20 21 24 24 22 20 20 20 19 18 20 22 24 26 29 31 33 35 37 39 39 39 39 40
20 19 18 20 26 33 35 37 36 35 36 35 32 31 30 27 25 21 23 24 23 25 29 30 30 29 28 27 27 28 28 30 32 34 34 36 38 39 39 41 40 41 41 42
23 22 23 20 19 24 31 39 38 38 38 38 36 34 33 31 29 24 24 29 31 28 31 33 34 36 35 35 34 35 35 35 37 38 39 39 40 39 41 41 41 41 42 42
Wind_Direction
231 241 230 230 234 235 226 241 255 250 248 257 249 257 258 274 277 278 269 270 268 254 244 252 250 238 230 212 220 228 229 230 220 221 225 232 235 235 237 240 240 244 248 249
249 238 237 240 246 245 250 248 258 262 251 252 252 249 249 254 268 276 271 277 265 251 251 259 250 246 234 223 219 212 229 226 227 222 225 224 229 235 239 240 244 248 250 253
262 244 237 237 240 245 250 257 263 271 269 256 251 245 248 252 260 261 264 260 263 266 264 262 253 243 235 223 245 231 216 233 235 231 232 229 227 232 238 242 244 248 252 253
258 245 247 250 247 251 256 269 272 274 271 254 252 243 244 247 255 271 265 274 270 266 258 246 232 251 244 239 240 222 219 230 230 230 229 232 238 238 238 242 245 249 252 254
258 256 256 238 248 251 253 266 270 269 280 282 279 256 244 257 261 264 260 255 267 257 251 219 246 236 244 238 237 237 235 191 220 227 221 231 237 240 244 246 249 252 253 257
262 260 264 256 262 270 277 274 278 276 271 269 277 272 246 243 242 263 266 260 260 277 255 250 276 229 240 245 238 236 247 234 225 242 251 233 232 242 248 251 246 244 251 259
261 260 266 254 260 274 275 276 287 281 274 278 269 266 241 241 249 253 274 278 274 269 289 250 286 247 223 235 240 245 245 248 245 237 240 234 245 256 260 255 254 267 261 264
255 253 265 281 280 281 299 299 290 293 286 281 278 258 260 247 251 247 250 269 284 291 271 265 289 172 227 210 217 231 228 240 247 244 235 237 243 251 261 258 268 264 274 260
256 265 272 296 271 289 298 298 292 286 280 276 250 249 241 203 199 228 246 260 285 313 281 283 288 292 258 212 220 204 228 239 221 222 234 233 240 252 249 254 264 261 255 259
253 267 267 280 293 283 288 289 288 296 292 289 139 133 182 214 229 242 254 258 284 269 287 295 292 284 291 172 176 196 180 187 224 235 217 226 233 229 235 233 247 254 255 246
252 250 246 268 277 288 291 306 302 328 112 101 128 163 187 211 229 245 246 250 252 261 251 257 301 291 284 261 192 172 179 198 194 203 210 205 201 230 316 340 318 317 318 313
253 265 240 273 279 303 291 288 282 306 5 59 174 211 216 221 225 240 246 241 247 264 250 259 273 266 266 286 282 181 69 22 2 352 333 359 349 350 351 353 337 329 324 322
251 237 243 267 281 280 273 314 5 331 299 254 249 237 243 239 235 241 241 245 271 273 243 221 214 229 234 268 317 341 7 28 22 28 27 12 351 346 321 293 291 290 293 294
222 226 226 240 263 281 285 287 311 288 310 265 223 224 223 233 235 239 239 243 239 257 216 206 197 214 240 235 251 261 271 270 279 282 288 290 285 285 284 287 291 298 304 303
230 233 201 203 241 234 269 307 15 36 321 291 263 238 229 235 240 235 216 211 199 206 243 238 226 234 239 245 252 258 268 284 300 305 304 295 291 284 284 283 272 276 296 311
229 218 213 214 230 250 246 282 316 343 278 241 248 276 258 239 241 245 232 219 215 205 231 252 247 245 248 254 262 268 276 287 289 283 273 266 251 213 230 287 298 300 300 300
215 229 218 213 224 248 283 270 270 281 271 300 282 297 284 256 272 266 257 242 235 238 249 245 247 248 248 255 260 261 264 260 262 233 191 220 259 275 286 293 295 296 298 304
217 218 223 218 221 240 243 262 274 260 252 250 261 314 300 272 274 258 219 208 212 213 212 213 216 226 232 242 251 246 200 190 201 222 252 274 282 285 285 287 293 296 301 301
219 217 226 228 221 229 238 240 248 248 258 256 254 261 286 271 247 237 214 219 238 235 228 226 231 231 211 183 172 182 196 218 237 264 275 281 289 292 292 295 296 296 298 298
226 226 228 230 234 227 233 234 229 242 255 265 272 265 279 259 240 233 231 231 230 228 214 207 202 199 194 201 222 235 240 226 235 262 284 304 314 314 310 304 302 302 304 307
235 232 234 238 238 240 234 235 233 235 245 257 273 267 273 238 208 206 219 216 217 216 203 214 222 229 232 234 225 206 207 221 238 291 325 332 330 323 316 316 315 311 311 310
237 235 240 242 244 243 245 240 234 238 240 246 259 267 265 239 227 229 241 234 228 233 234 232 232 228 220 220 217 215 225 257 286 303 315 320 323 326 327 321 316 313 312 314
241 243 248 250 250 247 246 245 239 236 237 242 251 258 255 250 243 245 251 246 242 241 231 215 218 225 225 227 235 248 264 276 290 301 307 311 316 320 323 322 317 313 312 314
246 248 252 252 249 250 246 242 241 238 237 232 242 248 250 249 253 249 252 254 251 238 229 228 237 240 247 258 265 271 279 289 295 300 306 309 312 312 313 314 312 313 314 315
249 248 249 244 239 244 249 250 240 240 240 240 240 246 248 253 254 258 255 252 247 248 238 238 246 250 257 267 273 279 285 289 294 299 302 304 307 308 310 312 310 309 309 310
256 250 251 253 249 247 247 248 242 241 241 242 242 246 250 252 256 259 263 266 260 251 249 246 251 255 259 268 273 277 283 286 291 295 298 300 303 305 308 307 308 308 309 311
254 249 243 248 252 249 245 244 246 240 241 242 243 243 250 254 255 262 262 270 271 261 258 258 257 259 263 267 271 275 280 284 288 291 293 295 297 301 303 303 307 308 307 309
Height
5829 5828 5826 5827 5830 5831 5832 5832 5829 5833 5831 5831 5837 5839 5837 5834 5840 5842 5840 5844 5848 5848 5851 5848 5848 5851 5859 5864 5856 5872 5873 5879 5881 5885 5891 5896 5899 5901 5903 5906 5908 5909 5911 5912
5820 5821 5822 5823 5824 5825 5825 5825 5821 5823 5825 5824 5823 5827 5831 5832 5831 5832 5833 5833 5836 5838 5840 5841 5840 5841 5845 5845 5845 5840 5859 5870 5874 5874 5881 5885 5891 5894 5896 5898 5901 5903 5905 5907
5813 5814 5813 5815 5816 5816 5815 5814 5815 5815 5817 5815 5815 5820 5823 5825 5825 5823 5826 5827 5827 5827 5828 5831 5833 5833 5835 5840 5843 5835 5848 5864 5869 5870 5875 5878 5880 5884 5889 5892 5894 5895 5896 5899
5807 5807 5809 5810 5809 5809 5807 5810 5807 5804 5801 5802 5803 5807 5814 5814 5817 5817 5820 5822 5821 5820 5819 5821 5823 5825 5828 5831 5834 5836 5839 5843 5854 5860 5864 5871 5875 5878 5879 5883 5885 5887 5890 5891
5800 5801 5804 5800 5800 5800 5801 5803 5799 5796 5794 5794 5794 5798 5801 5808 5810 5811 5808 5813 5815 5815 5819 5814 5816 5815 5818 5823 5826 5821 5825 5821 5841 5847 5853 5861 5866 5870 5874 5874 5877 5880 5882 5883
5794 5795 5796 5797 5793 5795 5794 5794 5792 5790 5788 5786 5784 5789 5796 5798 5801 5801 5802 5804 5807 5809 5811 5810 5806 5805 5810 5815 5818 5814 5822 5825 5823 5837 5848 5854 5857 5861 5864 5864 5865 5868 5870 5872
5788 5789 5790 5789 5785 5786 5786 5791 5785 5781 5780 5780 5777 5780 5783 5789 5792 5795 5799 5798 5798 5803 5806 5810 5801 5800 5802 5809 5813 5817 5817 5823 5827 5831 5838 5842 5844 5848 5850 5852 5853 5856 5860 5862
5784 5783 5784 5783 5782 5782 5785 5782 5778 5776 5770 5768 5770 5771 5775 5780 5782 5788 5793 5794 5796 5795 5800 5801 5797 5794 5799 5803 5809 5813 5812 5815 5821 5824 5828 5834 5837 5837 5839 5840 5843 5846 5848 5850
5780 5781 5782 5778 5775 5774 5779 5773 5766 5762 5760 5754 5756 5757 5767 5774 5777 5783 5786 5793 5793 5792 5793 5791 5793 5792 5797 5797 5800 5804 5808 5813 5811 5811 5815 5820 5824 5828 5828 5831 5831 5833 5836 5839
5774 5776 5775 5774 5771 5766 5768 5766 5761 5758 5758 5750 5751 5753 5760 5773 5775 5780 5783 5788 5791 5791 5792 5792 5791 5792 5795 5793 5795 5799 5798 5801 5798 5801 5800 5805 5809 5811 5815 5818 5820 5822 5824 5826
5768 5770 5771 5771 5765 5765 5764 5765 5760 5755 5754 5755 5759 5760 5764 5770 5773 5777 5781 5783 5786 5788 5789 5790 5792 5792 5794 5794 5792 5794 5793 5792 5794 5797 5798 5800 5802 5806 5808 5811 5813 5816 5818 5820
5765 5766 5766 5768 5763 5763 5761 5759 5758 5757 5755 5758 5763 5764 5766 5769 5771 5773 5776 5780 5783 5784 5784 5786 5788 5792 5789 5790 5791 5792 5791 5792 5795 5797 5798 5799 5802 5804 5807 5810 5812 5814 5815 5815
5761 5761 5764 5763 5760 5759 5759 5759 5760 5760 5763 5761 5760 5762 5765 5767 5769 5771 5773 5776 5779 5782 5782 5783 5783 5787 5786 5788 5789 5790 5793 5793 5796 5799 5801 5802 5804 5805 5807 5809 5810 5811 5811 5811
5756 5758 5762 5762 5759 5759 5756 5760 5760 5760 5762 5762 5762 5762 5763 5765 5767 5768 5770 5773 5776 5779 5780 5780 5780 5784 5785 5786 5789 5791 5793 5793 5794 5797 5798 5800 5802 5803 5805 5805 5806 5807 5806 5806
5752 5756 5759 5760 5758 5758 5757 5755 5758 5760 5759 5759 5760 5761 5760 5761 5763 5766 5769 5771 5773 5776 5779 5778 5778 5780 5784 5784 5785 5788 5789 5790 5792 5794 5795 5795 5797 5799 5799 5800 5801 5801 5801 5802
5746 5751 5753 5757 5758 5756 5757 5756 5757 5758 5759 5759 5760 5759 5760 5761 5762 5764 5767 5768 5770 5771 5774 5774 5775 5776 5779 5781 5783 5784 5786 5788 5789 5791 5791 5792 5793 5794 5795 5795 5796 5796 5795 5796
5744 5747 5751 5754 5756 5755 5754 5755 5757 5757 5756 5758 5757 5758 5758 5759 5760 5762 5763 5765 5767 5769 5771 5771 5771 5773 5776 5779 5780 5782 5783 5785 5786 5786 5787 5788 5789 5790 5790 5790 5791 5790 5790 5789
5740 5742 5746 5749 5753 5754 5755 5755 5755 5756 5756 5758 5758 5758 5758 5759 5759 5760 5761 5763 5764 5765 5766 5768 5769 5770 5772 5773 5775 5776 5779 5781 5782 5784 5785 5786 5785 5786 5785 5785 5785 5785 5785 5784
5735 5739 5741 5745 5749 5752 5753 5754 5754 5755 5755 5756 5756 5757 5757 5757 5758 5760 5760 5761 5762 5763 5763 5764 5765 5766 5769 5770 5772 5774 5776 5779 5780 5781 5781 5781 5782 5782 5781 5781 5780 5780 5779 5777
5730 5734 5737 5740 5744 5747 5749 5752 5753 5753 5753 5754 5754 5754 5754 5754 5754 5756 5757 5758 5758 5759 5759 5760 5762 5764 5766 5768 5770 5771 5773 5774 5776 5777 5777 5777 5778 5777 5776 5775 5774 5772 5770 5768
5725 5728 5731 5734 5738 5740 5743 5746 5749 5750 5750 5750 5751 5752 5752 5752 5753 5754 5755 5756 5757 5757 5758 5760 5761 5764 5765 5767 5768 5770 5771 5772 5773 5774 5773 5772 5772 5770 5769 5767 5765 5763 5760 5758
5717 5720 5723 5727 5729 5734 5736 5739 5744 5744 5746 5747 5748 5748 5748 5749 5750 5752 5753 5754 5755 5756 5757 5758 5759 5761 5762 5764 5766 5766 5767 5767 5768 5767 5767 5766 5766 5765 5763 5760 5757 5754 5751 5747
5710 5714 5716 5719 5721 5724 5727 5730 5736 5737 5739 5741 5741 5743 5745 5746 5748 5749 5749 5750 5752 5753 5754 5755 5757 5758 5760 5761 5762 5762 5762 5763 5762 5762 5761 5760 5758 5755 5753 5750 5747 5744 5742 5737
5701 5704 5708 5710 5710 5712 5717 5722 5727 5730 5731 5736 5736 5738 5740 5741 5743 5744 5745 5746 5748 5748 5749 5751 5753 5754 5755 5756 5756 5755 5755 5754 5754 5754 5754 5753 5751 5748 5745 5741 5737 5732 5728 5724
5696 5697 5698 5700 5701 5704 5709 5713 5719 5721 5723 5726 5730 5731 5733 5735 5736 5739 5739 5740 5742 5743 5744 5745 5746 5747 5748 5748 5748 5748 5748 5748 5747 5747 5745 5743 5741 5738 5734 5729 5726 5723 5720 5716
5687 5690 5692 5693 5694 5696 5700 5702 5708 5713 5716 5717 5721 5723 5725 5728 5729 5732 5732 5732 5735 5736 5736 5738 5738 5739 5740 5740 5740 5740 5740 5739 5738 5736 5734 5732 5729 5726 5723 5720 5716 5712 5709 5705
5678 5679 5682 5683 5684 5686 5689 5691 5695 5702 5706 5709 5711 5713 5715 5717 5720 5724 5725 5723 5723 5727 5726 5726 5728 5729 5729 5730 5730 5730 5730 5729 5727 5725 5723 5721 5719 5715 5712 5708 5705 5701 5697 5693